Tracking 19651 objects as of 22-Apr-2019
HD Live streaming from Space Station
objects crossing your sky now

URSA MAIOR

Track URSA MAIOR now!
10-day predictions
URSA MAIOR is classified as:


NORAD ID: 42776
Int'l Code: 2017-036M
Perigee: 498.3 km
Apogee: 519.5 km
Inclination: 97.4 °
Period: 94.7 minutes
Semi major axis: 6879 km
RCS: Unknown
Launch date: June 23, 2017
Source: Italy (IT)
Launch site: SRIHARIKOTA (SRI)

Uplink (MHz):
Downlink (MHz): 435.950
Beacon (MHz):
Mode: 9600bps FSK
Call sign: URSAMR
Status: Active

aabbcc
Your satellite tracking list
Your tracking list is empty




NASA's NSSDC Master Catalog

Two Line Element Set (TLE):
1 42776U 17036M   19111.94267472 +.00000797 +00000-0 +38517-4 0  9998
2 42776 097.3565 170.1812 0015419 066.4587 293.8267 15.21364180101436
Source of the keplerian elements: AMSAT